Bellingham, WA

11:44 AM PST on December 14, 2017 (GMT -0800)
Bellingham International

Weather History for KBLI - February, 2013

Change the Weather History Date:

Wednesday, February 6, 2013

  Actual Average Record
Temperature  
Mean Temperature 46 °F 40 °F  
Max Temperature 48 °F 48 °F 62 °F (1963)
Min Temperature 44 °F 33 °F 20 °F (1989)
Degree Days  
Heating Degree Days 19 25  
Month to date heating degree days 150  
Cooling Degree Days 0 0  
Month to date cooling degree days 0  
Year to date cooling degree days 0  
Moisture  
Dew Point 38 °F    
Average Humidity 76    
Maximum Humidity 85    
Minimum Humidity 61    
Precipitation  
Precipitation 0.02 in 0.12 in 0.64 in (1961)
Month to date precipitation 0.70  
Year to date precipitation 5.37  
Sea Level Pressure  
Sea Level Pressure 29.94 in    
Wind  
Wind Speed 11 mph (SE)    
Max Wind Speed 15 mph    
Max Gust Speed 23 mph    
Visibility 10 miles    
Events Rain    
T = Trace of Precipitation, MM = Missing Value Source: NWS Daily Summary

Daily Weather History Graph

Daily Weather History Graph

Search for Another Location

Airport or City:

Trip Planner

Search our weather history database for the weather conditions in past years. The results will help you decide how hot, cold, wet, or windy it might be!

Date:

Astronomy

Feb. 06, 2013 Rise Set
Actual Time 7:32 AM PST 5:16 PM PST
Civil Twilight 6:58 AM PST 5:50 PM PST
Nautical Twilight 6:21 AM PST 6:27 PM PST
Astronomical Twilight 5:44 AM PST 7:04 PM PST
Moon 4:31 AM PST (2/6) 1:31 PM PST (2/6)
Length of Visible Light 10h 51m
Length of Day
9h 44m
Waning Crescent, 16% of the Moon is Illuminated
Feb 6
Waning Crescent
Feb 9
New
Feb 17
First Quarter
Feb 25
Full
Mar 4
Last Quarter

Hourly Weather History & Observations

Time (PST) Temp. Windchill Dew Point Humidity Pressure Visibility Wind Dir Wind Speed Gust Speed Precip Events Conditions
12:53 AM 45.0 °F 38.2 °F 39.9 °F 82% 29.92 in 10.0 mi SSE 15.0 mph 21.9 mph 0.00 in   Mostly Cloudy
1:53 AM 46.0 °F 41.4 °F 39.9 °F 79% 29.94 in 10.0 mi South 9.2 mph 19.6 mph N/A   Mostly Cloudy
2:16 AM 46.4 °F 42.4 °F 39.2 °F 76% 29.92 in 10.0 mi South 8.1 mph - N/A   Mostly Cloudy
2:39 AM 44.6 °F 38.4 °F 39.2 °F 81% 29.93 in 10.0 mi SSE 12.7 mph 20.7 mph N/A   Overcast
2:53 AM 46.0 °F 40.6 °F 39.9 °F 79% 29.95 in 10.0 mi SSE 11.5 mph 18.4 mph N/A   Overcast
3:53 AM 45.0 °F 38.9 °F 39.9 °F 82% 29.96 in 10.0 mi SSE 12.7 mph 18.4 mph 0.00 in   Overcast
4:53 AM 45.0 °F 39.7 °F 39.0 °F 80% 29.99 in 10.0 mi SSE 10.4 mph - N/A   Overcast
5:49 AM 44.6 °F 39.7 °F 39.2 °F 81% 29.97 in 10.0 mi South 9.2 mph - N/A   Overcast
5:53 AM 45.0 °F 39.7 °F 39.9 °F 82% 29.99 in 10.0 mi SSE 10.4 mph - N/A   Overcast
6:53 AM 44.6 °F 39.2 °F 39.2 °F 81% 29.98 in 10.0 mi SSE 10.4 mph - N/A   Overcast
7:53 AM 44.1 °F 38.6 °F 39.9 °F 85% 30.00 in 10.0 mi SSE 10.4 mph - N/A   Overcast
8:53 AM 45.0 °F 40.6 °F 39.0 °F 80% 30.02 in 10.0 mi SSE 8.1 mph - N/A   Overcast
9:53 AM 46.0 °F 39.9 °F 37.9 °F 73% 30.01 in 10.0 mi SE 13.8 mph - N/A   Overcast
10:53 AM 46.9 °F - 37.9 °F 71% 30.01 in 10.0 mi SSE 10.4 mph 23.0 mph N/A   Overcast
11:53 AM 48.0 °F - 37.9 °F 68% 30.00 in 10.0 mi SE 12.7 mph 17.3 mph N/A   Overcast
12:53 PM 48.9 °F - 36.0 °F 61% 29.97 in 10.0 mi SSE 12.7 mph 23.0 mph N/A   Overcast
1:53 PM 48.9 °F - 36.0 °F 61% 29.95 in 10.0 mi SE 13.8 mph 19.6 mph N/A   Overcast
2:53 PM 46.9 °F - 39.0 °F 74% 29.95 in 10.0 mi SE 13.8 mph - 0.00 in Rain Light Rain
3:53 PM 46.0 °F 41.4 °F 39.0 °F 76% 29.94 in 10.0 mi ESE 9.2 mph - 0.02 in Rain Light Rain
4:53 PM 46.0 °F 40.2 °F 37.9 °F 73% 29.94 in 10.0 mi ESE 12.7 mph - 0.00 in   Overcast
5:53 PM 45.0 °F 41.2 °F 39.0 °F 80% 29.92 in 10.0 mi East 6.9 mph - 0.00 in Rain Light Rain
6:53 PM 44.1 °F 41.5 °F 39.0 °F 82% 29.90 in 10.0 mi ESE 4.6 mph - N/A   Overcast
7:53 PM 44.6 °F 42.2 °F 37.4 °F 76% 29.84 in 10.0 mi ENE 4.6 mph - N/A   Overcast
8:53 PM 46.0 °F 40.2 °F 37.0 °F 71% 29.85 in 10.0 mi ESE 12.7 mph - N/A   Overcast
9:53 PM 46.0 °F 41.9 °F 36.0 °F 68% 29.82 in 10.0 mi East 8.1 mph - N/A   Partly Cloudy
10:53 PM 44.1 °F 40.8 °F 37.0 °F 76% 29.81 in 10.0 mi NE 5.8 mph - N/A   Mostly Cloudy
11:53 PM 44.1 °F 40.1 °F 37.9 °F 79% 29.79 in 10.0 mi NNE 6.9 mph - N/A   Overcast